Regional Weather Roundup
Issued by NWS

Home | Current Version | Previous Version | Graphics & Text | Print | Product List | Glossary On
Versions: 1 2 3 4 5 6 7 8 9 10 11 12 13 14 15 16 17 18 19 20 21 22 23 24 25 26 27 28 29 30 31 32 33 34 35 36 37 38 39 40 41 42 43 44 45 46 47 48 49 50
000
ASUS43 KDTX 191110
RWRMI
MICHIGAN HOURLY REGIONAL WEATHER ROUNDUP
NATIONAL WEATHER SERVICE DETROIT/PONTIAC MI
700 AM EDT THU OCT 19 2017

NOTE: "FAIR" INDICATES FEW OR NO CLOUDS BELOW 12,000 FEET WITH NO
SIGNIFICANT WEATHER AND/OR OBSTRUCTION TO VISIBILITY.

MIZ047>049-052>055-059>063-066>070-074>076-081>083-191200-
SOUTHEAST LOWER MICHIGAN

CITY           SKY/WX    TMP DP  RH WIND       PRES   REMARKS
ADRIAN         CLEAR     47  43  86 SW8       30.09S
ALMA           CLOUDY    54  46  73 SW12      30.00R
ANN ARBOR      PTCLDY    48  44  86 S9        30.06S
BAD AXE        CLOUDY    57  43  59 SW12G18   29.97R
CARO           PTCLDY    57  44  62 SW12      29.98R
DETROIT CITY   PTCLDY    54  45  71 SW12      30.06R
DETROIT        PTCLDY    53  45  74 SW13      30.07S
FLINT          CLEAR     55  45  68 SW10      30.02R
GROSSE ILE     PTCLDY    54  45  72 SW7       30.06S
HILLSDALE      CLEAR     50  43  76 SW6       30.07R
HOWELL         CLEAR     54  45  72 SW6       30.03S

CITY           SKY/WX    TMP DP  RH WIND       PRES   REMARKS
JACKSON        CLEAR     54  45  71 SW14      30.06R
LAMBERTVILLE   PTCLDY    56  46  66 SW8       30.09S
LANSING        CLEAR     54  44  69 SW10      30.03R
LAPEER         FAIR      54  44  68 SW8       30.01R
MASON          PTCLDY    55  45  69 SW7       30.04R
MONROE         CLEAR     56  44  64 SW12      30.07S
MT. CLEMENS    PTCLDY    55  46  71 SW12      30.02S
PONTIAC        PTCLDY    50  44  80 S6        30.03R
PORT HOPE        N/A     57  44  62 SW9G22    29.93R
PORT HURON     CLEAR     55  45  67 SW5       30.02S
TRI CITIES     PTCLDY    55  47  74 SW15      29.98R
MIDLAND        FAIR      53  45  76 SW6       29.96S
TROY           PTCLDY    52  43  70 SW9       30.06R
SAGINAW HB     PTCLDY    54  45  71 SW12      29.99R
$$
MIZ043>046-050>051-056>058-064>065-071>073-077>080-191200-
SOUTHWEST LOWER MICHIGAN

CITY           SKY/WX    TMP DP  RH WIND       PRES   REMARKS
BATTLE CREEK   CLEAR     52  46  80 SW14      30.06R
BENTON HARBOR  PTCLDY    56  49  77 SW8       30.07R
BIG RAPIDS     CLOUDY    53  46  76 W7        29.98R
COLDWATER      CLEAR     52  45  76 SW8       30.07S
FREMONT        FAIR      54  46  72 W7        30.00R
HOLLAND        CLEAR     60  49  66 W9        30.04R
GRAND RAPIDS   CLEAR     53  49  86 SW9       30.02R
IONIA          FAIR      55  46  73 SW12      30.02R
KALAMAZOO      CLEAR     49  43  80 S7        30.07R
LUDINGTON      CLOUDY    56  37  48 NW10G18   30.00R
MARSHALL       CLEAR     51  45  78 SW6       30.06R
MOUNT PLEASANT CLOUDY    57  48  72 SW7       29.97R
MUSKEGON       CLEAR     59  47  64 W10       30.02R
SOUTH HAVEN    CLEAR     59  53  79 SW9       30.06R
$$
MIZ016>042-191200-
NORTHERN LOWER MICHIGAN

CITY           SKY/WX    TMP DP  RH WIND       PRES   REMARKS
ALPENA         CLOUDY    56  47  71 W7        29.89R
BEAVER ISLAND  CLOUDY    55  32  41 W12       29.92R
BELLAIRE       CLOUDY    56  30  36 W3        29.94R
CADILLAC       CLOUDY    53  44  71 W7        29.96R
CHARLEVOIX     CLOUDY    56  31  38 W17G23    29.95R
FRANKFORT      PTCLDY    57  32  37 NW13      29.97R
GAYLORD        CLOUDY    53  26  35 W9        29.92R
GRAYLING       CLOUDY    53  44  72 W6        29.94R
HARBOR SPRINGS CLOUDY    54  29  39 W3        29.91R
HOUGHTON LAKE  CLOUDY    54  46  74 W7        29.95R
MANISTEE       CLOUDY    56  35  45 W14       29.98
OSCODA         CLOUDY    53  44  71 SW8       29.91R
PELLSTON       CLEAR     53  29  39 W8        29.90R
ROGERS CITY    PTCLDY    55  41  58 NW6       29.89R
TRAVERSE CITY  CLOUDY    55  35  47 W9        29.95R
$$
MIZ007>008-015-191200-
EASTERN UPPER MICHIGAN

CITY           SKY/WX    TMP DP  RH WIND       PRES   REMARKS
KINROSS        CLEAR     47  29  49 W8        29.85R
MACKINAC ISLAN CLEAR     55  30  38 W14G23    29.87R
NEWBERRY       CLEAR     46  25  43 SW9       29.86S
S. S. MARIE    CLEAR     53  33  46 W12       29.82R
MUNISING         N/A     48  24  39 SW8       29.87R
$$
MIZ004>006-011>014-085-191200-
CENTRAL UPPER MICHIGAN

CITY           SKY/WX    TMP DP  RH WIND       PRES   REMARKS
MANISTIQUE     CLOUDY    47  11  24 W5        29.90R
ESCANABA       CLOUDY    43  28  55 SW6       29.93R
MENOMINEE      MOCLDY    49  25  39 W5        29.99R
SAWYER-GWINN   CLEAR     41  21  45 SW7       29.89S
$$
MIZ001>003-009>011-084-191200-
WESTERN UPPER MICHIGAN

CITY           SKY/WX    TMP DP  RH WIND       PRES   REMARKS
IRON MOUNTAIN  MOCLDY    47  20  34 SW6       29.93R
HOUGHTON       LGT RAIN  51  27  39 W29G36    29.82R
COPPER HARBOR    N/A     53  27  36 NW10G26   29.80R
IRONWOOD       CLOUDY    46  24  42 W10       29.95R
$$

ABBREVIATIONS USED IN REMARKS
   TC - TEMPERATURE IN CELSIUS
  WCI - WIND CHILL INDEX
   HX - HEAT INDEX
  VSB - VISIBILITY




USA.gov is the U.S. government's official web portal to all federal, state and local government web resources and services.